軌道要素
Epoch 2018 June 11.0 TT = JDT 2458280.5
T 2018 June 9.52033 TT Rudenko
q 2.4852960 (2000.0) P Q
n 0.06023081 Peri. 356.78454 +0.61377195 -0.74092612
a 6.4455045 Node 55.16281 +0.73154547 +0.40391332
e 0.6144141 Incl. 19.39796 +0.29685892 +0.53654684
P 16.4
From 226 observations 2001 Aug. 20-2019 Jan. 16, mean residual 1".1.
|